Cloud_Cover
0 0 8 20 18 22 23 23 20 3 0 0 0 0 0 0 4 59 36 10 2 52 43 87 99 80 90 100 62 100 100 12 13 0 0 31 0 0 0 4 0 0 0 5 38
0 0 0 0 0 0 0 0 0 0 3 0 0 0 0 0 0 1 84 100 5 5 53 44 18 12 49 14 33 68 47 88 1 0 0 2 5 0 1 5 0 15 98 100 62
0 0 0 0 0 0 0 0 0 0 0 0 0 0 0 0 0 4 5 100 95 21 42 5 5 5 5 4 0 0 52 44 5 3 0 0 1 0 4 1 1 100 100 100 90
0 0 0 0 0 0 0 0 0 0 0 0 0 0 0 0 0 0 3 7 98 14 100 100 64 13 4 2 4 4 8 1 0 0 0 0 0 0 5 3 64 100 100 97 64
0 0 0 0 0 0 0 0 0 0 2 0 0 0 0 0 0 0 0 0 22 95 100 97 98 99 71 5 5 4 0 0 0 0 0 0 0 0 15 63 22 98 92 54 6
0 0 0 0 0 0 0 0 0 0 0 0 0 0 0 0 0 0 0 0 5 84 93 46 100 19 22 14 19 0 15 34 4 0 0 0 0 0 0 5 5 5 14 5 5
0 0 0 0 0 0 0 0 0 0 0 0 0 0 0 0 0 0 0 0 0 48 93 100 95 18 42 18 54 1 64 80 19 12 57 0 0 0 0 3 5 5 5 4 4
0 0 0 0 0 0 0 0 0 0 0 0 0 0 0 0 0 0 0 0 0 0 63 97 33 38 6 14 41 5 24 53 100 8 4 7 62 0 0 0 0 5 22 1 0
0 0 0 0 0 0 0 0 0 0 0 0 0 0 0 0 0 0 0 0 0 4 5 25 3 2 9 4 32 79 12 4 35 22 1 0 0 0 0 0 0 0 1 3 0
0 0 0 0 0 0 0 0 0 0 0 0 0 0 0 0 0 0 0 0 0 0 4 3 5 5 73 16 44 51 12 3 5 1 0 0 0 0 0 0 0 0 0 0 0
0 0 0 0 0 0 0 0 0 0 0 0 0 0 0 0 0 0 0 0 0 0 0 12 67 49 1 51 98 94 25 31 0 2 5 86 4 0 0 0 0 0 0 0 0
0 0 0 0 0 0 1 0 0 0 0 0 0 3 0 0 0 0 0 0 0 0 0 32 93 96 5 22 100 96 29 5 35 5 81 14 2 0 0 0 0 0 0 0 0
0 0 0 0 0 0 0 0 0 0 0 0 4 4 0 3 1 0 0 0 0 0 0 5 52 87 51 5 4 100 26 5 97 47 5 2 3 0 0 0 0 0 0 0 0
0 0 0 20 0 0 0 0 0 0 0 0 0 0 2 5 5 0 0 0 0 0 0 0 10 25 85 0 13 26 100 58 100 7 17 4 0 3 0 0 0 1 4 4 0
0 0 0 0 0 0 0 0 0 0 0 0 0 0 0 0 0 5 1 0 6 5 1 0 5 3 2 25 70 2 31 100 28 7 4 5 1 4 0 0 0 0 0 0 0
0 0 8 0 0 0 0 0 0 0 0 0 0 0 0 0 0 1 5 4 5 96 26 27 27 22 12 9 11 5 5 2 5 4 57 57 4 0 0 0 0 0 0 0 0
0 0 24 0 0 0 0 0 0 0 0 0 0 0 0 0 0 1 68 7 2 7 100 12 14 5 6 4 2 3 2 0 4 5 71 100 4 0 0 0 0 0 0 0 0
0 0 0 0 0 0 0 0 0 0 0 0 0 0 0 0 0 0 3 100 92 5 56 100 49 86 6 5 2 5 2 28 5 5 5 14 71 0 0 0 0 0 0 0 0
0 0 0 0 0 0 0 0 0 0 0 0 0 0 0 0 0 0 0 0 20 9 5 5 96 6 47 100 100 92 4 5 1 2 0 0 0 0 0 0 0 0 0 0 0
0 0 0 0 0 0 0 0 0 0 0 0 0 0 0 0 0 0 0 0 0 72 34 23 14 67 5 5 13 13 97 13 2 3 22 1 0 0 0 0 0 0 0 0 0
0 0 0 0 0 0 0 0 0 0 0 0 0 0 0 0 0 0 0 0 0 0 0 51 96 100 77 17 5 58 25 5 42 0 15 81 40 0 4 0 0 0 0 0 0
0 0 0 0 0 0 0 0 0 0 0 0 0 0 0 0 0 0 0 0 0 0 0 0 0 74 100 67 52 71 100 96 5 4 2 5 2 3 3 1 0 0 0 0 0
0 0 0 0 0 0 0 0 0 0 0 0 0 0 0 0 0 0 0 0 0 0 0 0 0 0 24 100 100 81 27 7 5 3 0 0 2 2 88 97 14 3 0 0 0
0 0 0 0 0 0 0 0 0 0 0 0 0 0 0 0 0 0 0 0 0 0 0 0 0 0 0 0 3 41 100 100 100 85 29 0 82 6 5 5 57 5 0 0 0
0 0 0 0 0 0 0 0 0 0 0 0 0 0 0 0 0 0 0 0 0 0 0 0 0 0 0 0 0 0 0 6 59 100 100 100 99 100 5 1 16 4 2 4 3
0 0 0 0 0 0 0 0 0 0 0 0 0 0 0 0 0 0 0 0 0 0 0 0 0 0 0 0 0 0 0 0 0 4 59 100 100 100 100 100 100 83 5 22 74
0 0 0 0 0 0 0 0 0 0 0 0 0 0 0 0 0 0 0 0 0 0 0 0 0 0 0 0 0 0 0 0 0 0 2 89 100 100 100 100 100 28 54 49 93